This is the latest recevied weather packets stored in our database for station/object KC1ELF. If no packets are shown the sender has not sent any weather packets the latest 10 day(s).
| Time | Temp. | Humidity | Pressure | Rain* | Wind** | Luminosity | Snow |
|---|---|---|---|---|---|---|---|
| 1778012495 | 28.33° C | 35% | 1004.8 hPa | 0 mm | - | - | - |
| 1778011895 | 28.89° C | 34% | 1004.8 hPa | 0 mm | - | - | - |
| 1778011295 | 29.44° C | 35% | 1004.6 hPa | 0 mm | - | - | - |
| 1778010695 | 30° C | 37% | 1004.8 hPa | 0 mm | - | - | - |
| 1778010095 | 28.89° C | 38% | 1004.7 hPa | 0 mm | - | - | - |
| 1778009495 | 28.89° C | 37% | 1004.7 hPa | 0 mm | - | - | - |
| 1778008895 | 28.89° C | 38% | 1004.9 hPa | 0 mm | - | - | - |
| 1778008296 | 28.89° C | 36% | 1005.1 hPa | 0 mm | - | - | - |
| 1778007695 | 30.56° C | 34% | 1005.2 hPa | 0 mm | - | - | - |
| 1778007096 | 30.56° C | 33% | 1005.4 hPa | 0 mm | - | - | - |
| 1778006498 | 30° C | 34% | 1005.7 hPa | 0 mm | - | - | - |
| 1778005895 | 30.56° C | 34% | 1005.6 hPa | 0 mm | - | - | - |
| 1778005296 | 30.56° C | 36% | 1005.9 hPa | 0 mm | - | - | - |
| 1778004695 | 31.67° C | 34% | 1005.9 hPa | 0 mm | - | - | - |
| 1778004096 | 31.67° C | 36% | 1006.1 hPa | 0 mm | - | - | - |
| 1778003495 | 31.11° C | 36% | 1006.3 hPa | 0 mm | - | - | - |
| 1778002895 | 30.56° C | 37% | 1006.5 hPa | 0 mm | - | - | - |
| 1778002295 | 30° C | 38% | 1006.6 hPa | 0 mm | - | - | - |
| 1778001695 | 28.89° C | 40% | 1006.9 hPa | 0 mm | - | - | - |
| 1778001097 | 27.78° C | 41% | 1007.2 hPa | 0 mm | - | - | - |
| 1778000495 | 27.22° C | 42% | 1007.1 hPa | 0 mm | - | - | - |
| 1777999895 | 27.22° C | 43% | 1007.2 hPa | 0 mm | - | - | - |
| 1777999296 | 27.22° C | 46% | 1007.3 hPa | 0 mm | - | - | - |
| 1777998696 | 26.67° C | 46% | 1007.7 hPa | 0 mm | - | - | - |
| 1777998096 | 26.11° C | 47% | 1007.8 hPa | 0 mm | - | - | - |
* Rain latest hour (hover to see other rain measurements)
** Current wind speed in m/s (hover to see current wind gust speed)